Location: Olda
(45.8833°N, 9.5500°E)
Time: 17:08:16
(UTC+00:00)

Cosmos 1354 Rocket - Pass Details

Date: 03 March 2021
Orbit: 765 x 782 km, 74.0° (Epoch: 11 April)

Event Time Altitude Azimuth Distance (km) Brightness Sun altitude
Rises 18:19:13 0° 340° (NNW) 3,251 7.6 -12.6°
Reaches altitude 10° 18:21:37 10° 342° (NNW) 2,318 6.8 -13.0°
Maximum altitude 18:26:52 71° 67° (ENE) 813 3.9 -13.9°
Drops below altitude 10° 18:32:04 10° 151° (SSE) 2,296 6.1 -14.8°
Enters shadow 18:33:32 - 153° (SSE) 2,867 6.6 -15.1°
